[[{"header":{"parameterUnit":"m.s-1","parameterCategory":1,"la1":30.2991,"la2":30.254,"lo1":-89.0895,"lo2":-89.0444,"dy":0.0017,"dx":0.0017,"nx":28,"ny":28,"refTime":"2023-08-18T03:00:00:Z","depth":0,"parameterNumber":2,"parameterNumberName":"U-component_of_WINDS"},"data":[0,0,0,0,0,0,0,0,0,0,0,0,0,0,0,0,0,0,0,0,0,0,0,0,0,0,0,0,0,0,0,0,0,0,0,0,0,0,0,0,0,0,0,0,0,0,0,0,0,0,0,0,0,0,0,0,0,0,3.9008,3.9008,0,3.9076,3.9077,3.9078,3.8986,3.8982,3.8979,3.8976,3.9045,3.905,3.9055,0,0,0,0,0,0,0,0,0,0,0,0,0,3.8794,3.8798,3.9007,3.9008,3.9009,3.9076,3.9077,3.9078,3.8986,3.8982,3.8978,3.8974,3.9044,3.9049,3.9055,0,0,0,0,0,0,0,0,0,0,0,0,0,3.8877,3.88,3.9007,3.8971,3.8969,3.9076,3.9077,3.9078,3.8987,3.8982,3.8977,3.8973,3.9042,3.9049,3.9056,3.9201,0,0,3.9079,3.9082,0,0,0,0,0,0,0,0,3.8872,3.8885,3.8976,3.8974,3.8972,3.9017,3.9027,3.9119,3.8988,3.898,3.8976,3.897,3.904,3.9047,3.9071,3.9204,3.9207,3.9079,3.9084,3.9087,3.9089,0,0,0,0,0,0,0,3.8867,3.8881,3.9035,3.8977,3.8975,3.8951,3.8957,3.9044,3.9037,3.8981,3.8974,3.8983,3.9038,3.9064,3.9072,3.9208,3.9079,3.9086,3.909,3.9093,3.946,3.9465,0,0,0,0,0,0,3.8866,3.8877,3.9032,3.9037,3.8909,3.8959,3.8966,3.9008,3.9036,3.9035,3.8988,3.8979,3.9054,3.9063,3.9074,3.9242,3.9087,3.9094,3.9098,3.9455,3.9461,3.9467,0,0,0,0,0,0,3.8861,3.888,3.903,3.8955,3.8972,3.8968,3.9015,3.9012,3.9038,3.9041,3.9039,3.9016,3.905,3.9063,3.9169,3.9243,3.9097,3.9104,3.9449,3.9457,3.9464,3.9582,0,0,0,0,0,0,3.8856,3.8879,3.8935,3.8957,3.8977,3.9125,3.902,3.9017,3.9051,3.904,3.9067,3.9067,3.9047,3.9159,3.9177,3.9251,3.911,3.9442,3.9452,3.9462,3.9571,3.9593,3.9612,0,0,0,0,0,3.8848,3.8966,3.8938,3.8958,3.9047,3.913,3.9141,3.9116,3.9057,3.9112,3.9114,3.9066,3.9233,3.917,3.919,3.9267,3.9437,3.9449,3.9461,3.9562,3.9589,3.9611,0,0,0,0,0,0,3.8953,3.8968,3.8938,3.9067,3.9097,3.9114,3.9183,3.9145,3.9193,3.9181,3.9148,3.9155,3.9268,3.9279,3.9208,3.9407,3.9325,3.9342,3.9396,3.9421,3.944,3.9434,3.9116,0,0,0,0,0,3.8991,3.9058,3.9068,3.918,3.9197,3.9188,3.9223,3.9201,3.9232,3.9244,3.9254,3.9285,3.9344,3.9383,3.9438,3.9574,3.9576,3.9636,3.9656,3.9673,3.9686,3.9755,3.9781,3.9506,3.9506,3.9506,0,0,3.907,3.9087,3.9131,3.9202,3.9223,3.9291,3.9199,3.9276,3.9326,3.9256,3.9355,3.9364,3.9396,3.9516,3.957,3.9529,3.9763,3.9688,3.9701,3.9706,3.977,3.9796,3.9819,3.9515,3.9513,3.9512,0,0,3.9248,3.927,3.9363,3.9387,3.942,3.9413,3.9436,3.9458,3.946,3.956,3.9508,3.9566,3.967,3.9694,3.9719,3.9906,3.9862,3.9925,4.0028,4.0096,4.0117,4.0136,4.0199,4.0222,3.9939,3.9939,3.9939,0,3.9342,3.9444,3.9417,3.9497,3.9528,3.9468,3.9561,3.9585,3.9635,3.9657,3.9611,3.9737,3.9755,3.9878,3.9924,3.9948,3.9971,3.992,4.0116,4.0135,4.0152,4.0212,4.0236,3.9946,3.9946,3.9945,3.9944,0,3.9555,3.9627,3.9699,3.9747,3.9787,3.9874,3.9859,3.9902,3.9877,3.9874,3.9975,3.9994,4.005,4.0079,4.0056,4.0198,4.0171,4.0122,4.0038,4.0186,4.0241,4.0264,3.9957,3.9954,3.9952,3.995,0,0,3.98,3.9832,3.9859,3.9879,3.9911,3.9965,4.0048,4.0103,4.0139,4.0176,4.0242,4.0331,4.0284,4.0314,4.0293,4.0352,4.0494,4.0295,4.0295,4.0328,4.0648,4.0683,4.071,4.0466,4.0471,4.0474,4.0644,0,3.9975,4.0119,4.0096,4.0235,4.0298,4.0242,4.0314,4.0341,4.034,4.0393,4.0393,4.0454,4.039,4.0407,4.0464,4.0465,4.0557,4.0453,4.0526,4.0529,4.0516,4.0739,4.0776,4.0936,4.0666,4.067,4.0672,0,4.0199,4.0242,4.0387,4.0406,4.0432,4.0497,4.0544,4.0597,4.0625,4.062,4.0653,4.062,4.0701,4.0619,4.0728,4.0658,4.0686,4.0691,4.0697,4.07,4.0607,4.0745,4.0986,4.1009,4.0707,4.0704,4.0701,0,4.0358,4.0453,4.0551,4.057,4.0597,4.0643,4.0656,4.068,4.0713,4.0754,4.0775,4.0826,4.0853,4.0892,4.0873,4.0815,4.0985,4.0902,4.0981,4.0982,4.1017,4.1014,4.1263,4.1042,4.1042,4.1041,4.1041,0,4.0554,4.0643,4.0622,4.0682,4.078,4.0753,4.0851,4.0857,4.0878,4.0937,4.0892,4.0948,4.0922,4.0976,4.0962,4.1053,4.1066,4.1063,4.1057,4.1065,4.1065,4.1081,4.1068,4.1048,4.1046,4.1045,4.1044,0,4.0747,4.0737,4.0839,4.0855,4.0861,4.0932,4.0945,4.1001,4.0997,4.1072,4.1088,4.1081,4.1142,4.1128,4.1195,4.1185,4.1299,4.1282,4.1289,4.1283,4.1362,4.1353,4.1627,4.166,4.1421,4.1423,4.1425,0,4.0871,4.0938,4.0961,4.0997,4.1013,4.1073,4.1106,4.1083,4.1119,4.1156,4.1206,4.1263,4.1306,4.1406,4.1406,4.1457,4.1438,4.153,4.1445,4.1449,4.1434,4.1429,4.1434,4.1546,4.1549,4.1551,4.1553,0,4.109,4.1081,4.1132,4.118,4.1221,4.1259,4.1291,4.1323,4.1302,4.1345,4.1406,4.144,4.1508,4.1563,4.161,4.1621,4.1583,4.158,4.16,4.1607,4.1607,4.1604,4.1331,4.1573,4.1571,4.157,4.1568,4.1568,4.125,4.1306,4.133,4.1387,4.1409,4.144,4.1492,4.1494,4.1545,4.1597,4.1581,4.165,4.1674,4.1732,4.175,4.1802,4.1767,4.1798,4.1805,4.1812,4.182,4.1601,4.1811,4.1811,4.181,4.181,4.1809,0,4.1463,4.1476,4.1529,4.1575,4.162,4.1581,4.1615,4.1654,4.1715,4.1742,4.1786,4.1855,4.1908,4.1913,4.1963,4.2004,4.1988,4.2018,4.2013,4.2015,4.185,4.1826,4.203,4.203,4.203,4.203,4.203,4.203,4.158,4.1671,4.1665,4.1766,4.1778,4.1846,4.1868,4.1895,4.1916,4.1995,4.2039,4.2042,4.2059,4.211,4.2157,4.2157,4.2176,4.2212,4.2205,4.205,4.2028,4.2006,4.1983,4.2217,4.2218,4.2365,4.2366,4.2368]},{"header":{"parameterUnit":"m.s-1","parameterCategory":1,"la1":30.2991,"la2":30.254,"lo1":-89.0895,"lo2":-89.0444,"dy":0.0017,"dx":0.0017,"nx":28,"ny":28,"refTime":"2023-08-18T03:00:00:Z","depth":0,"parameterNumber":3,"parameterNumberName":"V-component_of_WINDS"},"data":[0,0,0,0,0,0,0,0,0,0,0,0,0,0,0,0,0,0,0,0,0,0,0,0,0,0,0,0,0,0,0,0,0,0,0,0,0,0,0,0,0,0,0,0,0,0,0,0,0,0,0,0,0,0,0,0,0,0,3.2434,3.2435,0,3.25,3.2501,3.2502,3.2481,3.248,3.2479,3.2477,3.254,3.2543,3.2546,0,0,0,0,0,0,0,0,0,0,0,0,0,3.2285,3.2288,3.2434,3.2435,3.2436,3.25,3.2501,3.2502,3.2482,3.248,3.2478,3.2477,3.2539,3.2543,3.2546,0,0,0,0,0,0,0,0,0,0,0,0,0,3.235,3.2289,3.2434,3.2434,3.2434,3.25,3.2501,3.2502,3.2482,3.248,3.2478,3.2476,3.2538,3.2543,3.2547,3.2616,0,0,3.256,3.2562,0,0,0,0,0,0,0,0,3.2347,3.2356,3.2433,3.2434,3.2435,3.2481,3.2472,3.254,3.2483,3.2464,3.2477,3.2475,3.2522,3.2527,3.2544,3.2618,3.2621,3.2561,3.2564,3.2565,3.2567,0,0,0,0,0,0,0,3.2342,3.2353,3.246,3.2434,3.2435,3.2428,3.2435,3.2484,3.2503,3.2465,3.2464,3.2472,3.2522,3.254,3.2546,3.2622,3.2561,3.2565,3.2567,3.2569,3.2754,3.2756,0,0,0,0,0,0,3.2338,3.2349,3.2458,3.2462,3.2385,3.2433,3.2441,3.2468,3.2503,3.2506,3.2474,3.2471,3.2533,3.254,3.2548,3.2629,3.2565,3.257,3.2572,3.2751,3.2754,3.2756,0,0,0,0,0,0,3.2335,3.2348,3.2455,3.2405,3.2419,3.2438,3.2468,3.247,3.2488,3.251,3.2512,3.2489,3.2532,3.2541,3.2599,3.2631,3.2572,3.2576,3.2749,3.2752,3.2755,3.2792,0,0,0,0,0,0,3.2331,3.2347,3.2374,3.2406,3.2421,3.2507,3.247,3.2473,3.2497,3.2493,3.2525,3.2528,3.2531,3.2592,3.2603,3.2636,3.2579,3.2746,3.275,3.2754,3.2788,3.2797,3.2804,0,0,0,0,0,3.2325,3.2382,3.2376,3.2389,3.2457,3.2509,3.2517,3.2521,3.2499,3.2526,3.2539,3.2527,3.2626,3.2598,3.261,3.2645,3.2744,3.2749,3.2754,3.2785,3.2795,3.2803,0,0,0,0,0,0,3.2352,3.2386,3.238,3.2449,3.2476,3.2505,3.254,3.2532,3.2566,3.2561,3.2563,3.257,3.2629,3.2643,3.2611,3.2712,3.2681,3.2689,3.2701,3.271,3.2718,3.2712,3.2583,0,0,0,0,0,3.2366,3.2407,3.2434,3.2492,3.2506,3.2521,3.2544,3.2544,3.2572,3.2583,3.2601,3.2627,3.2664,3.2688,3.2723,3.2791,3.2796,3.282,3.2828,3.2834,3.284,3.2874,3.2885,3.2773,3.2773,3.2773,0,0,3.2395,3.2418,3.2444,3.2498,3.2519,3.256,3.253,3.2575,3.2605,3.259,3.2645,3.2659,3.2688,3.275,3.2778,3.2763,3.2872,3.284,3.2845,3.2848,3.2881,3.2891,3.2901,3.2776,3.2776,3.2775,0,0,3.2468,3.2491,3.2541,3.2563,3.2597,3.2606,3.2618,3.2648,3.2657,3.2713,3.2702,3.2736,3.28,3.2821,3.284,3.292,3.2909,3.2931,3.2971,3.3004,3.3013,3.3021,3.3048,3.3057,3.2938,3.2938,3.2938,0,3.2499,3.2562,3.2567,3.2613,3.2636,3.2625,3.2675,3.2695,3.2738,3.2753,3.2736,3.2815,3.2835,3.29,3.292,3.2936,3.2948,3.2927,3.3012,3.302,3.3027,3.3052,3.3063,3.294,3.294,3.294,3.2939,0,3.2597,3.2641,3.2677,3.272,3.2747,3.2794,3.2804,3.2831,3.2829,3.2839,3.2895,3.2918,3.2956,3.2972,3.2971,3.3037,3.3027,3.3011,3.298,3.304,3.3064,3.3074,3.2944,3.2943,3.2942,3.2941,0,0,3.2689,3.2734,3.2746,3.2765,3.2801,3.2833,3.2879,3.2918,3.294,3.297,3.3006,3.3061,3.3046,3.3067,3.3068,3.3098,3.3157,3.3078,3.3078,3.309,3.323,3.324,3.3252,3.3151,3.3153,3.3154,3.3227,0,3.2763,3.2846,3.2852,3.2925,3.2964,3.2954,3.2994,3.3019,3.303,3.3063,3.3074,3.3111,3.309,3.3103,3.3132,3.3144,3.3185,3.3139,3.3183,3.3184,3.3174,3.3264,3.3276,3.3343,3.3236,3.3238,3.3239,0,3.2862,3.2895,3.2973,3.3002,3.3018,3.3054,3.309,3.3122,3.315,3.3155,3.3179,3.3175,3.322,3.3189,3.3249,3.3218,3.3236,3.3244,3.3247,3.325,3.3214,3.3268,3.3365,3.3375,3.3254,3.3253,3.3252,0,3.2918,3.2982,3.3037,3.3053,3.3089,3.3114,3.313,3.3155,3.3178,3.3209,3.3223,3.3258,3.3277,3.3303,3.3308,3.3285,3.3368,3.3337,3.3372,3.3371,3.3388,3.3387,3.3488,3.3403,3.3403,3.3403,3.3402,0,3.3,3.3047,3.3062,3.3096,3.3148,3.3153,3.3204,3.3218,3.3241,3.3275,3.3269,3.33,3.3306,3.3338,3.3343,3.3391,3.34,3.3404,3.3404,3.3403,3.3403,3.3414,3.3409,3.3405,3.3405,3.3404,3.3404,0,3.3071,3.3083,3.3142,3.3171,3.3179,3.3216,3.324,3.3271,3.3281,3.3324,3.3335,3.335,3.3388,3.3396,3.344,3.3443,3.35,3.3496,3.3491,3.349,3.3523,3.3519,3.3634,3.3648,3.3555,3.3556,3.3557,0,3.3122,3.3158,3.3191,3.3214,3.3232,3.3269,3.3292,3.3299,3.3323,3.3356,3.3383,3.342,3.345,3.3511,3.3525,3.3558,3.3554,3.3592,3.3559,3.3557,3.3552,3.355,3.3552,3.3598,3.3599,3.36,3.36,0,3.3209,3.3214,3.3248,3.3285,3.3314,3.3343,3.337,3.3389,3.3398,3.3426,3.3465,3.3489,3.3534,3.3571,3.3604,3.3618,3.361,3.3611,3.362,3.3619,3.3614,3.3615,3.3506,3.3608,3.3607,3.3606,3.3606,3.3606,3.327,3.3302,3.333,3.3368,3.339,3.3415,3.3446,3.346,3.3493,3.3532,3.3533,3.3575,3.36,3.3645,3.3661,3.3693,3.3681,3.3695,3.3698,3.3701,3.3703,3.361,3.3699,3.3699,3.3699,3.3698,3.3698,0,3.3356,3.3374,3.3409,3.3448,3.3478,3.347,3.35,3.3524,3.3562,3.3587,3.3617,3.3661,3.3697,3.3713,3.3747,3.377,3.3767,3.3778,3.3776,3.3779,3.3713,3.37,3.378,3.378,3.378,3.378,3.378,3.378,3.3404,3.3456,3.3464,3.3525,3.3542,3.3585,3.3602,3.3625,3.3645,3.3695,3.3724,3.3736,3.3757,3.3792,3.3823,3.3827,3.3839,3.3852,3.3854,3.3792,3.3783,3.3775,3.3764,3.3855,3.3855,3.3917,3.3917,3.3918]}]]